Date_and_time,latitude,longitude,wind_speed,RelWindDirFrom,WindDirFrom,air_pressure,air_temperature,relative_humidity,Temp,platform_speed_wrt_ground,air_pressure_at_mean_sea_level,platform_orientation
2018-10-31 00:00,50.630455,-96.9807666666667,8.6,14.3,261,978.65,3.6,95,4.94,0.0,1005.80,38.0
2018-10-31 00:10,50.630455,-96.9807666666667,8.7,13.6,266,978.68,3.4,98,4.93,0.0,1005.84,38.0
2018-10-31 00:20,50.630455,-96.9807683333333,8.0,13.0,270,978.70,3.3,99,4.92,0.0,1005.87,38.0
2018-10-31 00:30,50.630455,-96.9807666666667,8.1,14.1,271,978.72,3.2,99,4.92,0.0,1005.90,38.0
2018-10-31 00:40,50.630455,-96.980765,8.8,15.2,270,978.78,3.1,99,4.92,0.0,1005.97,38.0
2018-10-31 00:50,50.630455,-96.980765,8.1,13.1,268,978.87,2.9,99,4.91,0.0,1006.11,38.0
2018-10-31 01:00,50.6304566666667,-96.980765,7.3,12.4,275,978.89,2.8,99,4.91,0.0,1006.16,360.0
2018-10-31 01:10,50.630455,-96.9807666666667,5.9,9.7,267,978.98,2.6,100,4.91,0.0,1006.26,360.0
2018-10-31 01:20,50.6304516666667,-96.980765,6.3,10.3,254,979.00,2.5,100,4.91,0.0,1006.30,360.0
2018-10-31 01:30,50.6304533333333,-96.98077,8.5,12.5,258,979.02,2.4,100,4.91,0.0,1006.32,360.0
2018-10-31 01:40,50.630455,-96.98077,7.7,12.6,261,979.05,2.3,100,4.91,0.0,1006.36,360.0
2018-10-31 01:50,50.630455,-96.9807716666667,8.4,13.1,261,979.07,2.2,100,4.90,0.0,1006.39,360.0
2018-10-31 02:00,50.630455,-96.98077,7.0,10.7,257,979.11,2.1,100,4.88,0.0,1006.44,38.0
2018-10-31 02:10,50.630455,-96.9807683333333,7.5,11.4,249,979.11,2.1,100,4.87,0.0,1006.46,38.0
2018-10-31 02:20,50.630455,-96.9807666666667,6.7,11.1,252,979.09,2.0,100,4.87,0.0,1006.44,38.0
2018-10-31 02:30,50.6304633333333,-96.9807533333333,5.9,9.6,251,979.09,2.0,101,4.86,0.0,1006.45,38.0
2018-10-31 02:40,50.6304616666667,-96.9807583333333,7.6,11.9,251,979.04,2.0,100,4.86,0.0,1006.40,38.0
2018-10-31 02:50,50.63046,-96.9807633333333,9.1,16.1,255,979.03,2.1,100,4.86,0.0,1006.40,38.0
2018-10-31 03:00,50.63046,-96.98076,9.3,14.3,264,979.07,2.2,100,4.86,0.0,1006.44,12.6
2018-10-31 03:10,50.6304583333333,-96.9807583333333,9.6,15.0,268,979.12,2.1,100,4.85,0.0,1006.50,12.6
2018-10-31 03:20,50.6304533333333,-96.9807683333333,9.3,15.8,278,979.13,1.9,100,4.84,0.0,1006.53,12.6
2018-10-31 03:30,50.6304516666667,-96.9807616666667,6.9,13.4,274,979.16,1.8,100,4.83,0.0,1006.57,12.6
2018-10-31 03:40,50.6304633333333,-96.9807616666667,7.4,11.5,268,979.19,1.7,100,4.83,0.0,1006.61,12.6
2018-10-31 03:50,50.6304616666667,-96.9807583333333,8.1,13.1,264,979.17,1.6,100,4.83,0.0,1006.59,12.6
2018-10-31 04:00,50.6304583333333,-96.9807566666667,8.7,13.0,262,979.17,1.6,100,4.83,0.0,1006.60,12.6
2018-10-31 04:10,50.6304416666667,-96.9807433333333,7.7,13.1,265,979.16,1.6,100,4.82,0.0,1006.60,12.6
2018-10-31 04:20,50.6304616666667,-96.9807616666667,8.4,13.4,265,979.15,1.5,100,4.81,0.0,1006.59,12.6
2018-10-31 04:30,50.6304616666667,-96.9807616666667,9.1,15.5,267,979.15,1.5,100,4.81,0.0,1006.59,12.6
2018-10-31 04:40,50.63046,-96.9807633333333,8.7,13.4,269,979.20,1.6,100,4.81,0.0,1006.63,12.6
2018-10-31 04:50,50.6304616666667,-96.980765,7.8,14.7,272,979.26,1.6,100,4.82,0.0,1006.68,12.6
2018-10-31 05:00,50.63046,-96.9807683333333,8.4,15.2,277,979.31,1.6,100,4.82,0.0,1006.74,360.0
2018-10-31 05:10,50.63046,-96.9807666666667,8.3,15.5,278,979.35,1.7,100,4.80,0.0,1006.79,360.0
2018-10-31 05:20,50.6304566666667,-96.9807733333333,9.7,16.9,278,979.39,1.7,100,4.80,0.0,1006.83,360.0
2018-10-31 05:30,50.630455,-96.9807616666667,8.8,14.7,275,979.54,1.7,100,4.80,0.0,1006.99,360.0
2018-10-31 05:40,50.6304533333333,-96.9807666666667,9.8,16.0,277,979.56,1.7,100,4.78,0.0,1007.02,360.0
2018-10-31 05:50,50.6304516666667,-96.9807633333333,9.6,15.7,279,979.62,1.6,100,4.77,0.0,1007.09,360.0
2018-10-31 06:00,50.6304533333333,-96.9807616666667,7.7,11.6,282,979.70,1.6,100,4.77,0.0,1007.17,360.0
2018-10-31 06:10,50.6304533333333,-96.9807616666667,8.1,12.9,278,979.79,1.6,100,4.77,0.0,1007.26,360.0
2018-10-31 06:20,50.6304533333333,-96.9807583333333,8.2,15.2,281,979.87,1.6,100,4.77,0.0,1007.35,360.0
2018-10-31 06:30,50.6304533333333,-96.9807566666667,9.2,13.4,277,979.99,1.6,100,4.76,0.0,1007.47,360.0
2018-10-31 06:40,50.6304533333333,-96.9807566666667,9.2,13.7,278,980.09,1.6,100,4.76,0.0,1007.58,360.0
2018-10-31 06:50,50.6304533333333,-96.9807583333333,9.3,15.9,278,980.21,1.6,100,4.75,0.0,1007.70,360.0
2018-10-31 07:00,50.6304533333333,-96.9807583333333,9.0,14.5,281,980.26,1.5,100,4.75,0.0,1007.74,360.0
2018-10-31 07:10,50.6304516666667,-96.9807583333333,8.2,14.7,280,980.31,1.5,100,4.74,0.0,1007.80,360.0
2018-10-31 07:20,50.6304516666667,-96.9807583333333,8.8,14.9,282,980.34,1.5,100,4.74,0.0,1007.83,360.0
2018-10-31 07:30,50.6304516666667,-96.9807583333333,8.2,15.2,281,980.44,1.5,100,4.73,0.0,1007.93,360.0
2018-10-31 07:40,50.6304516666667,-96.9807583333333,8.7,15.0,279,980.47,1.5,100,4.73,0.0,1007.97,360.0
2018-10-31 07:50,50.6304466666667,-96.98075,9.7,15.6,284,980.46,1.4,100,4.72,0.0,1007.96,360.0
2018-10-31 08:00,50.6304416666667,-96.9807566666667,9.5,15.4,289,980.54,1.4,100,4.72,0.0,1008.04,360.0
2018-10-31 08:10,50.630445,-96.98076,9.0,15.4,284,980.67,1.3,99,4.72,0.0,1008.18,360.0
2018-10-31 08:20,50.630445,-96.9807566666667,10.1,18.6,279,980.74,1.2,99,4.72,0.0,1008.26,360.0
2018-10-31 08:30,50.630445,-96.98076,8.2,14.1,286,980.83,1.2,99,4.71,0.0,1008.36,360.0
2018-10-31 08:40,50.6304466666667,-96.9807616666667,9.0,15.1,288,980.88,1.1,99,4.70,0.0,1008.41,360.0
2018-10-31 08:50,50.6304466666667,-96.9807616666667,8.4,13.5,289,980.94,1.1,99,4.69,0.0,1008.48,360.0
2018-10-31 09:00,50.6304466666667,-96.9807616666667,8.3,12.1,284,981.03,1.0,99,4.69,0.0,1008.57,142.0
2018-10-31 09:10,50.6304483333333,-96.9807616666667,8.3,14.6,278,981.08,0.9,99,4.69,0.0,1008.63,142.0
2018-10-31 09:20,50.63045,-96.9807616666667,7.5,12.9,280,981.13,0.8,100,4.68,0.0,1008.68,142.0
2018-10-31 09:30,50.63045,-96.9807616666667,8.2,14.0,285,981.17,0.8,100,4.67,0.0,1008.73,142.0
2018-10-31 09:40,50.6304716666667,-96.9807783333333,7.9,12.8,289,981.27,0.8,100,4.66,0.0,1008.84,142.0
2018-10-31 09:50,50.6304583333333,-96.9807633333333,7.1,12.2,283,981.36,0.8,100,4.66,0.0,1008.92,142.0
2018-10-31 10:00,50.6304533333333,-96.9807816666667,6.9,10.3,278,981.44,0.8,100,4.65,0.0,1009.02,270.0
2018-10-31 10:10,50.63045,-96.9807583333333,8.2,15.2,286,981.46,0.7,100,4.64,0.0,1009.04,270.0
2018-10-31 10:20,50.63044,-96.980745,9.2,15.2,288,981.47,0.7,99,4.64,0.0,1009.05,270.0
2018-10-31 10:30,50.63047,-96.9807566666667,8.4,12.6,289,981.54,0.7,99,4.63,0.0,1009.14,270.0
2018-10-31 10:40,50.63045,-96.98076,8.6,13.9,290,981.64,0.6,100,4.62,0.0,1009.24,270.0
2018-10-31 10:50,50.6304466666667,-96.9807633333333,7.8,14.6,292,981.79,0.6,100,4.61,0.0,1009.40,270.0
2018-10-31 11:00,50.6304466666667,-96.9807666666667,7.3,13.3,292,981.85,0.5,100,4.58,0.0,1009.47,347.4
2018-10-31 11:10,50.6304483333333,-96.9807666666667,8.9,14.9,293,981.84,0.4,100,4.57,0.0,1009.47,347.4
2018-10-31 11:20,50.6304483333333,-96.9807666666667,8.5,15.1,288,981.96,0.3,100,4.57,0.0,1009.60,347.4
2018-10-31 11:30,50.6304483333333,-96.9807666666667,9.0,13.9,293,981.99,0.4,99,4.56,0.0,1009.63,347.4
2018-10-31 11:40,50.6304466666667,-96.9807683333333,9.3,16.6,291,982.08,0.4,99,4.55,0.0,1009.72,347.4
2018-10-31 11:50,50.63046,-96.9807733333333,11.8,18.4,298,982.04,0.4,99,4.53,0.0,1009.69,347.4
2018-10-31 12:00,50.63045,-96.9807633333333,9.2,14.2,305,982.20,0.3,99,4.53,0.0,1009.85,347.4
2018-10-31 12:10,50.63045,-96.9807616666667,8.5,13.0,299,982.32,0.1,99,4.52,0.0,1009.98,347.4
2018-10-31 12:20,50.63045,-96.9807616666667,8.4,12.8,298,982.38,0.0,99,4.52,0.0,1010.05,347.4
2018-10-31 12:30,50.63045,-96.9807633333333,7.9,13.4,295,982.45,0.0,99,4.52,0.0,1010.13,347.4
2018-10-31 12:40,50.6304283333333,-96.980775,7.4,11.3,289,982.57,-0.1,99,4.52,0.0,1010.26,347.4
2018-10-31 12:50,50.6304533333333,-96.98078,6.7,11.1,285,982.62,-0.0,99,4.52,0.0,1010.31,347.4
2018-10-31 13:00,50.6304516666667,-96.9807783333333,5.4,8.9,277,982.71,0.0,99,4.50,0.0,1010.41,90.0
2018-10-31 13:10,50.6304516666667,-96.9807783333333,6.8,12.8,285,982.77,0.0,99,4.48,0.0,1010.47,90.0
2018-10-31 13:20,50.63045,-96.9807766666667,7.1,12.8,287,982.82,0.1,99,4.47,0.0,1010.51,90.0
2018-10-31 13:30,50.6304483333333,-96.9807766666667,8.0,12.6,290,982.89,0.1,99,4.46,0.0,1010.58,90.0
2018-10-31 13:40,50.63045,-96.9807766666667,8.1,14.4,289,983.01,0.1,99,4.45,0.0,1010.71,90.0
2018-10-31 13:50,50.6304433333333,-96.9807716666667,8.7,15.1,293,983.06,0.1,99,4.45,0.0,1010.77,90.0
2018-10-31 14:00,50.6304466666667,-96.98077,8.5,14.5,298,983.13,0.1,99,4.45,0.0,1010.85,0.0
2018-10-31 14:10,50.6304483333333,-96.98077,8.6,13.7,295,983.18,0.1,99,4.45,0.0,1010.90,0.0
2018-10-31 14:20,50.6304483333333,-96.9807666666667,8.9,16.0,292,983.31,0.0,99,4.45,0.0,1011.05,0.0
2018-10-31 14:30,50.6304516666667,-96.9807716666667,10.3,15.4,295,983.39,-0.1,97,4.43,0.0,1011.13,0.0
2018-10-31 14:40,50.6304416666667,-96.9807433333333,9.7,17.1,296,983.43,0.1,89,4.42,0.0,1011.16,0.0
2018-10-31 14:50,50.630445,-96.9807533333333,9.4,14.9,302,983.41,0.3,87,4.42,0.0,1011.14,0.0
2018-10-31 15:00,50.63044,-96.980765,7.8,11.7,296,983.51,0.4,88,4.42,0.0,1011.23,360.0
2018-10-31 15:10,50.6304383333333,-96.9807916666667,8.9,15.2,285,983.49,0.3,89,4.42,0.0,1011.21,360.0
2018-10-31 15:20,50.6304416666667,-96.9807816666667,8.5,13.4,290,983.58,0.2,90,4.42,0.0,1011.31,360.0
2018-10-31 15:30,50.6304366666667,-96.9807666666667,9.4,13.7,283,983.70,0.3,90,4.42,0.0,1011.42,360.0
2018-10-31 15:40,50.6304383333333,-96.98077,10.0,14.3,286,983.72,0.3,87,4.41,0.0,1011.45,360.0
2018-10-31 15:50,50.6304416666667,-96.98075,9.6,15.8,294,983.73,0.4,85,4.39,0.0,1011.45,360.0
2018-10-31 16:00,50.630445,-96.9807533333333,11.0,18.7,295,983.71,0.6,82,4.38,0.0,1011.42,118.3
2018-10-31 16:10,50.63045,-96.9807533333333,11.0,16.7,288,983.77,0.5,82,4.39,0.0,1011.49,118.3
2018-10-31 16:20,50.63046,-96.9807466666667,10.4,15.4,298,983.81,0.5,82,4.39,0.0,1011.54,118.3
2018-10-31 16:30,50.63046,-96.9807583333333,8.2,12.9,293,983.91,0.6,83,4.39,0.0,1011.63,118.3
2018-10-31 16:40,50.6304583333333,-96.9807633333333,8.4,13.4,296,983.96,0.8,83,4.40,0.0,1011.66,118.3
2018-10-31 16:50,50.6304566666667,-96.980765,6.5,11.2,284,984.06,0.8,84,4.41,0.0,1011.76,118.3
2018-10-31 17:00,50.630455,-96.9807666666667,8.2,12.2,279,984.15,0.8,84,4.42,0.0,1011.85,38.0
2018-10-31 17:10,50.6304633333333,-96.980765,8.4,15.5,283,984.18,0.7,84,4.42,0.0,1011.89,38.0
2018-10-31 17:20,50.630465,-96.98077,9.6,15.2,269,984.29,0.5,87,4.42,0.0,1012.01,38.0
2018-10-31 17:30,50.630465,-96.9807716666667,9.4,15.3,279,984.20,0.4,87,4.42,0.0,1011.92,38.0
2018-10-31 17:40,50.630465,-96.98077,9.3,15.0,283,984.21,0.2,86,4.42,0.0,1011.93,38.0
2018-10-31 17:50,50.6304633333333,-96.9807666666667,8.9,13.9,278,984.28,0.3,84,4.42,0.0,1012.00,38.0
2018-10-31 18:00,50.6304616666667,-96.9807666666667,8.8,13.6,276,984.31,0.4,81,4.42,0.0,1012.03,360.0
2018-10-31 18:10,50.63046,-96.9807666666667,7.5,12.8,295,984.31,0.4,81,4.42,0.0,1012.03,360.0
2018-10-31 18:20,50.6304533333333,-96.9807733333333,8.7,14.6,302,984.26,0.4,78,4.42,0.0,1011.97,360.0
2018-10-31 18:30,50.6304633333333,-96.9807616666667,8.6,12.7,288,984.35,0.4,77,4.42,0.0,1012.05,360.0
2018-10-31 18:40,50.6304733333333,-96.9807566666667,7.2,13.2,276,984.45,0.5,77,4.42,0.0,1012.16,360.0
2018-10-31 18:50,50.6304633333333,-96.9807533333333,8.4,11.9,281,984.40,0.4,74,4.43,0.0,1012.11,360.0
2018-10-31 19:00,50.6304616666667,-96.9807583333333,6.3,10.0,291,984.48,0.3,75,4.43,0.0,1012.20,360.0
2018-10-31 19:10,50.6304583333333,-96.98076,7.9,13.2,297,984.41,0.3,75,4.43,0.0,1012.14,360.0
2018-10-31 19:20,50.6304583333333,-96.98076,8.5,13.6,305,984.43,0.1,77,4.43,0.0,1012.17,360.0
2018-10-31 19:30,50.63046,-96.9807633333333,7.9,12.4,290,984.53,0.0,78,4.44,0.0,1012.29,360.0
2018-10-31 19:40,50.63046,-96.9807633333333,9.0,14.3,305,984.48,-0.1,82,4.44,0.0,1012.25,360.0
2018-10-31 19:50,50.63046,-96.980765,7.5,11.3,287,984.59,-0.3,82,4.44,0.0,1012.36,360.0
2018-10-31 20:00,50.63046,-96.9807666666667,8.3,13.2,295,984.58,-0.3,80,4.45,0.0,1012.34,360.0
2018-10-31 20:10,50.63046,-96.9807666666667,8.2,15.0,298,984.59,-0.3,80,4.45,0.0,1012.36,360.0
2018-10-31 20:20,50.6304533333333,-96.9807633333333,8.2,15.9,319,984.56,-0.2,76,4.45,0.0,1012.32,360.0
2018-10-31 20:30,50.630465,-96.9807716666667,8.5,12.4,337,984.61,0.1,74,4.45,0.0,1012.35,360.0
2018-10-31 20:40,50.6304633333333,-96.980765,6.8,10.2,321,984.66,0.1,73,4.45,0.0,1012.41,360.0
2018-10-31 20:50,50.6304616666667,-96.9807616666667,6.1,9.6,311,984.78,0.2,72,4.45,0.0,1012.53,360.0
2018-10-31 21:00,50.6304616666667,-96.98076,6.8,10.8,307,984.86,0.3,70,4.46,0.0,1012.61,90.0
2018-10-31 21:10,50.6304633333333,-96.98076,7.4,11.9,315,984.93,0.3,70,4.46,0.0,1012.69,90.0
2018-10-31 21:20,50.6304633333333,-96.9807616666667,8.5,14.7,315,984.98,0.1,70,4.46,0.0,1012.76,90.0
2018-10-31 21:30,50.6304633333333,-96.98076,7.9,12.8,314,985.14,0.2,70,4.46,0.0,1012.93,90.0
2018-10-31 21:40,50.6304616666667,-96.9807616666667,7.1,11.3,315,985.29,0.1,70,4.46,0.0,1013.09,90.0
2018-10-31 21:50,50.63046,-96.9807616666667,5.5,8.5,307,985.38,0.2,69,4.46,0.0,1013.18,90.0
2018-10-31 22:00,50.6304616666667,-96.9807616666667,6.3,9.7,320,985.40,0.2,68,4.46,0.0,1013.20,0.0
2018-10-31 22:10,50.63046,-96.9807616666667,7.5,12.3,312,985.47,0.1,69,4.46,0.0,1013.27,0.0
2018-10-31 22:20,50.6304516666667,-96.9807533333333,7.5,11.5,315,985.50,-0.0,69,4.46,0.0,1013.30,0.0
2018-10-31 22:30,50.630455,-96.9807566666667,7.1,10.4,310,985.60,-0.1,69,4.45,0.0,1013.40,0.0
2018-10-31 22:40,50.6304466666667,-96.980765,7.3,10.9,311,985.66,-0.1,70,4.45,0.0,1013.46,0.0
2018-10-31 22:50,50.6304566666667,-96.9807666666667,6.2,8.6,313,985.75,-0.1,71,4.45,0.0,1013.55,0.0
2018-10-31 23:00,50.63045,-96.980765,5.4,8.2,314,985.85,-0.2,71,4.45,0.0,1013.65,142.0
2018-10-31 23:10,50.6304583333333,-96.9807633333333,5.8,8.6,311,985.95,-0.3,71,4.44,0.0,1013.77,142.0
2018-10-31 23:20,50.6304583333333,-96.9807666666667,4.8,7.3,308,986.05,-0.3,71,4.43,0.0,1013.87,142.0
2018-10-31 23:30,50.6304616666667,-96.9807683333333,4.5,7.2,311,986.13,-0.3,71,4.43,0.0,1013.95,142.0
2018-10-31 23:40,50.6304633333333,-96.98077,5.3,7.5,310,986.20,-0.3,72,4.42,0.0,1014.02,142.0
